Starlink 6047

operational
NORAD ID: 56460 Int'l Des: 2023-064 Owner: SPXS Country: US Constellation: starlink
LEOCIRCULAR

Starlink 6047について

説明を読み込み中...

リアルタイム位置

3D地球を読み込み中...

次回通過

高度履歴

Altitude vs Time

uPlot chart will show altitude changes over time

軌道要素

1 56460U 23064N 25352.28384661 .00001098 00000-0 99801-4 0 9990
2 56460 69.9993 349.6534 0003059 270.3355 89.7454 14.98333707143059
Epoch: Dec 18, 2025 • Age: 7 hours

現在のステータス

高度 580.5 km
速度 7.57 km/s
衛星直下点 47.30°N, 82.9°E
打ち上げ日 May 10, 2023
運用期間 2.6 years
タイプ internet

技術仕様

分類 Payload
質量 305.00 kg
乾燥質量 290.00 kg
総質量 305.00 kg
長さ 0.20 m
直径 2.80 m
スパン 9.00 m
形状 Box + pan
製造者 SPXS
バスタイプ Starlink
フェーズステータス In Orbit
所有者/国 SPXS/US

大規模コンステレーション

Loading constellations...